Volver al catálogo

STARLINK-4103

ActivoComunicacionesVLEO
NORAD 53141·PAYLOAD·🇺🇸 United States

Lanzado Jul 17, 2022 desde Cape Canaveral Space Force Station

Loading…

Próximos Pases (próximas 24 horas)

TLE

ActualizadoSource: CelesTrak SupGP

Época: Sep 15, 2026, 02:30 UTC

1 53141C 22083K   26258.10465278 -.00010833  00000+0 -32004-3 0  2581
2 53141  53.1600  28.7172 0001047  96.6312 194.1075 15.34398739    17

Sigue STARLINK-4103 en tiempo real con AllMySat

Download on the App Store